| time (UTC) | temp F | wind direction | speed MPH | gust MPH | rain 1hr in | rain 24hr in | rain mn in | humidity % | barometer mb |
| 20260902005618 | 79 | 0.0 | 0.0 | 0.00 | 0.00 | 0.00 | 54 | 995.3 | |
| 20260902005159 | 80 | 0.0 | 0.0 | 0.00 | 0.00 | 0.00 | 55 | 995.3 | |
| 20260902004618 | 80 | 0.0 | 0.0 | 0.00 | 0.00 | 0.00 | 55 | 995.2 | |
| 20260902004138 | 80 | 0.0 | 0.0 | 0.00 | 0.00 | 0.00 | 55 | 995.2 | |
| 20260902003618 | 80 | 0.0 | 0.0 | 0.00 | 0.00 | 0.00 | 55 | 995.1 | |
| 20260902003117 | 80 | 0.0 | 0.0 | 0.00 | 0.00 | 0.00 | 56 | 995.1 | |
| 20260902002618 | 80 | 0.0 | 0.0 | 0.00 | 0.00 | 0.00 | 56 | 995.1 | |
| 20260902002118 | 80 | 0.0 | 0.0 | 0.00 | 0.00 | 0.00 | 56 | 995.0 | |
| 20260902001617 | 80 | 0.0 | 1.0 | 0.00 | 0.00 | 0.00 | 56 | 994.9 | |
| 20260902001117 | 81 | 225 | 1.0 | 2.0 | 0.00 | 0.00 | 0.00 | 55 | 995.0 |
| 20260902000637 | 81 | 225 | 3.0 | 4.0 | 0.00 | 0.00 | 0.00 | 55 | 994.9 |
| 20260902000118 | 81 | 0 | 4.0 | 6.0 | 0.00 | 0.00 | 0.00 | 55 | 994.9 |
| 20260901235621 | 81 | 225 | 5.0 | 6.0 | 0.00 | 0.00 | 0.00 | 55 | 995.0 |
| 20260901235140 | 81 | 225 | 6.0 | 7.0 | 0.00 | 0.00 | 0.00 | 54 | 995.0 |
| 20260901234620 | 82 | 0 | 6.0 | 8.0 | 0.00 | 0.00 | 0.00 | 54 | 995.0 |
| 20260901234118 | 82 | 0 | 6.0 | 9.0 | 0.00 | 0.00 | 0.00 | 53 | 995.1 |
| 20260901233620 | 82 | 225 | 5.0 | 5.0 | 0.00 | 0.00 | 0.00 | 53 | 995.3 |
| 20260901233120 | 82 | 225 | 3.0 | 3.0 | 0.00 | 0.00 | 0.00 | 53 | 995.4 |
| 20260901232617 | 82 | 225 | 3.0 | 4.0 | 0.00 | 0.00 | 0.00 | 52 | 995.3 |
| 20260901232121 | 82 | 225 | 2.0 | 3.0 | 0.00 | 0.00 | 0.00 | 51 | 995.3 |
| 20260901231617 | 82 | 225 | 3.0 | 4.0 | 0.00 | 0.00 | 0.00 | 51 | 995.3 |
| 20260901231141 | 82 | 225 | 3.0 | 3.0 | 0.00 | 0.00 | 0.00 | 51 | 995.3 |
| 20260901230620 | 82 | 225 | 3.0 | 4.0 | 0.00 | 0.00 | 0.00 | 50 | 995.5 |
| 20260901230119 | 82 | 225 | 2.0 | 3.0 | 0.00 | 0.00 | 0.00 | 49 | 995.5 |
| 20260901225638 | 82 | 248 | 2.0 | 3.0 | 0.00 | 0.00 | 0.00 | 50 | 995.6 |
| 20260901225117 | 83 | 248 | 1.0 | 3.0 | 0.00 | 0.00 | 0.00 | 50 | 995.7 |
| 20260901224620 | 83 | 225 | 3.0 | 4.0 | 0.00 | 0.00 | 0.00 | 50 | 995.6 |
| 20260901224117 | 83 | 248 | 5.0 | 5.0 | 0.00 | 0.00 | 0.00 | 50 | 995.6 |
| 20260901223619 | 83 | 248 | 4.0 | 5.0 | 0.00 | 0.00 | 0.00 | 50 | 995.4 |
| 20260901223120 | 83 | 225 | 6.0 | 8.0 | 0.00 | 0.00 | 0.00 | 50 | 995.2 |
| 20260901222620 | 83 | 248 | 9.0 | 13.0 | 0.00 | 0.00 | 0.00 | 50 | 995.2 |
| 20260901222118 | 83 | 248 | 11.0 | 14.0 | 0.00 | 0.00 | 0.00 | 52 | 995.4 |
| 20260901221619 | 84 | 225 | 6.0 | 7.0 | 0.00 | 0.00 | 0.00 | 53 | 995.6 |
| 20260901221120 | 84 | 225 | 6.0 | 8.0 | 0.00 | 0.00 | 0.00 | 53 | 995.7 |
| 20260901220618 | 84 | 225 | 8.0 | 11.0 | 0.00 | 0.00 | 0.00 | 53 | 995.7 |
| 20260901220119 | 84 | 248 | 6.0 | 7.0 | 0.00 | 0.00 | 0.00 | 53 | 995.8 |
| 20260901215618 | 84 | 248 | 7.0 | 9.0 | 0.00 | 0.00 | 0.00 | 53 | 995.8 |
| 20260901215119 | 84 | 248 | 5.0 | 8.0 | 0.00 | 0.00 | 0.00 | 52 | 995.9 |
| 20260901214619 | 85 | 225 | 5.0 | 6.0 | 0.00 | 0.00 | 0.00 | 52 | 995.9 |
| 20260901214121 | 85 | 225 | 7.0 | 10.0 | 0.00 | 0.00 | 0.00 | 52 | 995.9 |
| 20260901213619 | 85 | 225 | 9.0 | 11.0 | 0.00 | 0.00 | 0.00 | 52 | 995.8 |
| 20260901213119 | 85 | 248 | 6.0 | 8.0 | 0.00 | 0.00 | 0.00 | 52 | 995.9 |
| 20260901212619 | 85 | 225 | 4.0 | 5.0 | 0.00 | 0.00 | 0.00 | 52 | 995.9 |
| 20260901212139 | 85 | 248 | 4.0 | 5.0 | 0.00 | 0.00 | 0.00 | 52 | 996.0 |
| 20260901211619 | 85 | 225 | 5.0 | 8.0 | 0.00 | 0.00 | 0.00 | 52 | 996.0 |
| 20260901211120 | 85 | 248 | 11.0 | 14.0 | 0.00 | 0.00 | 0.00 | 51 | 995.7 |
| 20260901210620 | 85 | 225 | 12.0 | 14.0 | 0.00 | 0.00 | 0.00 | 51 | 995.6 |
| 20260901210117 | 85 | 248 | 10.0 | 13.0 | 0.00 | 0.00 | 0.00 | 50 | 995.8 |
| 20260901205621 | 85 | 248 | 7.0 | 9.0 | 0.00 | 0.00 | 0.00 | 50 | 995.8 |
| 20260901205139 | 86 | 248 | 7.0 | 10.0 | 0.00 | 0.00 | 0.00 | 50 | 995.8 |
| 20260901204619 | 86 | 225 | 7.0 | 9.0 | 0.00 | 0.00 | 0.00 | 49 | 995.7 |
| 20260901204137 | 86 | 248 | 10.0 | 12.0 | 0.00 | 0.00 | 0.00 | 48 | 995.8 |
| 20260901203617 | 87 | 248 | 6.0 | 8.0 | 0.00 | 0.00 | 0.00 | 48 | 995.8 |
| 20260901203117 | 87 | 225 | 6.0 | 9.0 | 0.00 | 0.00 | 0.00 | 49 | 995.7 |
| 20260901202619 | 87 | 0 | 6.0 | 8.0 | 0.00 | 0.00 | 0.00 | 48 | 995.7 |
| 20260901202117 | 88 | 248 | 12.0 | 14.0 | 0.00 | 0.00 | 0.00 | 48 | 995.6 |
| 20260901201639 | 88 | 225 | 10.0 | 13.0 | 0.00 | 0.00 | 0.00 | 47 | 995.6 |
| 20260901201118 | 88 | 225 | 11.0 | 14.0 | 0.00 | 0.00 | 0.00 | 47 | 995.5 |
| 20260901200617 | 88 | 225 | 9.0 | 11.0 | 0.00 | 0.00 | 0.00 | 48 | 995.5 |
| 20260901200139 | 88 | 225 | 5.0 | 7.0 | 0.00 | 0.00 | 0.00 | 48 | 995.5 |
| 20260901195619 | 88 | 248 | 7.0 | 10.0 | 0.00 | 0.00 | 0.00 | 48 | 995.6 |
| 20260901195117 | 88 | 0 | 5.0 | 8.0 | 0.00 | 0.00 | 0.00 | 46 | 995.5 |
| 20260901194617 | 89 | 248 | 6.0 | 8.0 | 0.00 | 0.00 | 0.00 | 46 | 995.6 |
| 20260901194117 | 89 | 225 | 4.0 | 6.0 | 0.00 | 0.00 | 0.00 | 48 | 995.6 |
| 20260901193637 | 89 | 248 | 5.0 | 7.0 | 0.00 | 0.00 | 0.00 | 49 | 995.6 |
| 20260901193117 | 89 | 248 | 5.0 | 10.0 | 0.00 | 0.00 | 0.00 | 49 | 995.6 |
| 20260901192617 | 88 | 225 | 4.0 | 5.0 | 0.00 | 0.00 | 0.00 | 49 | 995.7 |
| 20260901192118 | 88 | 225 | 7.0 | 9.0 | 0.00 | 0.00 | 0.00 | 49 | 995.7 |
| 20260901191617 | 88 | 248 | 9.0 | 18.0 | 0.00 | 0.00 | 0.00 | 50 | 995.6 |
| 20260901191117 | 87 | 225 | 4.0 | 7.0 | 0.00 | 0.00 | 0.00 | 51 | 995.6 |
| 20260901190617 | 86 | 225 | 4.0 | 6.0 | 0.00 | 0.00 | 0.00 | 52 | 995.6 |
| 20260901190117 | 85 | 248 | 7.0 | 11.0 | 0.00 | 0.00 | 0.00 | 52 | 995.6 |
| 20260901185617 | 85 | 225 | 9.0 | 13.0 | 0.00 | 0.00 | 0.00 | 52 | 995.5 |
| 20260901185117 | 85 | 248 | 9.0 | 13.0 | 0.00 | 0.00 | 0.00 | 53 | 995.4 |
| 20260901184617 | 85 | 0 | 7.0 | 11.0 | 0.00 | 0.00 | 0.00 | 53 | 995.5 |
| 20260901184117 | 85 | 225 | 7.0 | 9.0 | 0.00 | 0.00 | 0.00 | 53 | 995.6 |
| 20260901183617 | 85 | 225 | 5.0 | 7.0 | 0.00 | 0.00 | 0.00 | 52 | 995.8 |
| 20260901183117 | 86 | 225 | 9.0 | 13.0 | 0.00 | 0.00 | 0.00 | 52 | 995.7 |
| 20260901182637 | 86 | 248 | 6.0 | 8.0 | 0.00 | 0.00 | 0.00 | 52 | 995.6 |
| 20260901182137 | 86 | 0 | 6.0 | 8.0 | 0.00 | 0.00 | 0.00 | 52 | 995.6 |
| 20260901181617 | 85 | 0 | 6.0 | 8.0 | 0.00 | 0.00 | 0.00 | 52 | 995.7 |
| 20260901181117 | 85 | 0 | 7.0 | 12.0 | 0.00 | 0.00 | 0.00 | 53 | 995.8 |
| 20260901180618 | 85 | 225 | 7.0 | 10.0 | 0.00 | 0.00 | 0.00 | 53 | 995.7 |
| 20260901180117 | 84 | 0 | 6.0 | 9.0 | 0.00 | 0.00 | 0.00 | 53 | 995.7 |
| 20260901175637 | 84 | 0 | 7.0 | 9.0 | 0.00 | 0.00 | 0.00 | 53 | 995.6 |
| 20260901175117 | 84 | 0 | 8.0 | 11.0 | 0.00 | 0.00 | 0.00 | 53 | 995.7 |
| 20260901174618 | 84 | 0 | 6.0 | 9.0 | 0.00 | 0.00 | 0.00 | 53 | 995.5 |
| 20260901174116 | 84 | 0 | 7.0 | 10.0 | 0.00 | 0.00 | 0.00 | 53 | 995.7 |
| 20260901173617 | 84 | 0 | 8.0 | 12.0 | 0.00 | 0.00 | 0.00 | 52 | 995.6 |
| 20260901173139 | 84 | 0 | 7.0 | 13.0 | 0.00 | 0.00 | 0.00 | 52 | 995.7 |
| 20260901172617 | 84 | 0 | 5.0 | 6.0 | 0.00 | 0.00 | 0.00 | 52 | 996.1 |
| 20260901172117 | 83 | 225 | 5.0 | 9.0 | 0.00 | 0.00 | 0.00 | 52 | 996.2 |
| 20260901171617 | 83 | 0 | 6.0 | 8.0 | 0.00 | 0.00 | 0.00 | 52 | 996.1 |
| 20260901171118 | 83 | 0 | 8.0 | 9.0 | 0.00 | 0.00 | 0.00 | 52 | 996.2 |
| 20260901170617 | 83 | 0 | 8.0 | 11.0 | 0.00 | 0.00 | 0.00 | 52 | 996.3 |
| 20260901170137 | 83 | 225 | 6.0 | 9.0 | 0.00 | 0.00 | 0.00 | 53 | 996.5 |
| 20260901165617 | 83 | 225 | 11.0 | 13.0 | 0.00 | 0.00 | 0.00 | 53 | 996.6 |
| 20260901165117 | 83 | 225 | 11.0 | 13.0 | 0.00 | 0.00 | 0.00 | 52 | 996.6 |
| 20260901164617 | 84 | 225 | 11.0 | 15.0 | 0.00 | 0.00 | 0.00 | 51 | 996.5 |
| 20260901164118 | 84 | 225 | 12.0 | 15.0 | 0.00 | 0.00 | 0.00 | 52 | 996.6 |
| 20260901163638 | 84 | 225 | 10.0 | 14.0 | 0.00 | 0.00 | 0.00 | 52 | 996.6 |
| 20260901163117 | 84 | 0 | 12.0 | 14.0 | 0.00 | 0.00 | 0.00 | 52 | 996.5 |
| 20260901162618 | 84 | 0 | 9.0 | 11.0 | 0.00 | 0.00 | 0.00 | 51 | 996.4 |
| 20260901162117 | 85 | 225 | 6.0 | 9.0 | 0.00 | 0.00 | 0.00 | 51 | 996.3 |
| 20260901161619 | 85 | 0 | 7.0 | 11.0 | 0.00 | 0.00 | 0.00 | 51 | 996.3 |
| 20260901161119 | 85 | 0 | 4.0 | 6.0 | 0.00 | 0.00 | 0.00 | 51 | 996.3 |
| 20260901160618 | 85 | 0 | 6.0 | 9.0 | 0.00 | 0.00 | 0.00 | 51 | 996.3 |
| 20260901160119 | 85 | 248 | 5.0 | 6.0 | 0.00 | 0.00 | 0.00 | 50 | 996.3 |
| 20260901155717 | 85 | 225 | 6.0 | 7.0 | 0.00 | 0.00 | 0.00 | 51 | 996.3 |
| 20260901155119 | 85 | 225 | 3.0 | 4.0 | 0.00 | 0.00 | 0.00 | 51 | 996.4 |
| 20260901154617 | 85 | 248 | 3.0 | 5.0 | 0.00 | 0.00 | 0.00 | 50 | 996.4 |
| 20260901154120 | 85 | 0 | 4.0 | 5.0 | 0.00 | 0.00 | 0.00 | 51 | 996.5 |
| 20260901153620 | 85 | 248 | 4.0 | 5.0 | 0.00 | 0.00 | 0.00 | 50 | 996.3 |
| 20260901153119 | 85 | 248 | 3.0 | 4.0 | 0.00 | 0.00 | 0.00 | 50 | 996.5 |
| 20260901152619 | 85 | 248 | 4.0 | 4.0 | 0.00 | 0.00 | 0.00 | 49 | 996.4 |
| 20260901152120 | 85 | 248 | 4.0 | 5.0 | 0.00 | 0.00 | 0.00 | 49 | 996.4 |
| 20260901151617 | 85 | 248 | 4.0 | 6.0 | 0.00 | 0.00 | 0.00 | 49 | 996.4 |
| 20260901151117 | 86 | 225 | 3.0 | 4.0 | 0.00 | 0.00 | 0.00 | 49 | 996.3 |
| 20260901150618 | 85 | 248 | 3.0 | 4.0 | 0.00 | 0.00 | 0.00 | 49 | 996.1 |
| 20260901150116 | 85 | 248 | 2.0 | 3.0 | 0.00 | 0.00 | 0.00 | 50 | 996.1 |
| 20260901145619 | 85 | 248 | 2.0 | 3.0 | 0.00 | 0.00 | 0.00 | 50 | 996.2 |
| 20260901145137 | 85 | 225 | 4.0 | 5.0 | 0.00 | 0.00 | 0.00 | 50 | 996.2 |
| 20260901144616 | 84 | 225 | 2.0 | 3.0 | 0.00 | 0.00 | 0.00 | 50 | 996.2 |
| 20260901144119 | 84 | 248 | 3.0 | 5.0 | 0.00 | 0.00 | 0.00 | 50 | 996.3 |
| 20260901143618 | 84 | 225 | 3.0 | 5.0 | 0.00 | 0.00 | 0.00 | 50 | 996.4 |
| 20260901143140 | 84 | 225 | 4.0 | 7.0 | 0.00 | 0.00 | 0.00 | 50 | 996.4 |
| 20260901142616 | 84 | 225 | 4.0 | 6.0 | 0.00 | 0.00 | 0.00 | 50 | 996.4 |
| 20260901142119 | 84 | 248 | 5.0 | 7.0 | 0.00 | 0.00 | 0.00 | 50 | 996.4 |
| 20260901141617 | 84 | 248 | 5.0 | 7.0 | 0.00 | 0.00 | 0.00 | 50 | 996.4 |
| 20260901141118 | 84 | 248 | 5.0 | 9.0 | 0.00 | 0.00 | 0.00 | 50 | 996.3 |
| 20260901140618 | 84 | 225 | 3.0 | 4.0 | 0.00 | 0.00 | 0.00 | 50 | 996.4 |
| 20260901140139 | 84 | 225 | 6.0 | 8.0 | 0.00 | 0.00 | 0.00 | 49 | 996.5 |
| 20260901135619 | 84 | 248 | 5.0 | 6.0 | 0.00 | 0.00 | 0.00 | 49 | 996.5 |
| 20260901135119 | 84 | 248 | 5.0 | 6.0 | 0.00 | 0.00 | 0.00 | 49 | 996.3 |
| 20260901134619 | 84 | 248 | 6.0 | 8.0 | 0.00 | 0.00 | 0.00 | 48 | 996.2 |
| 20260901134117 | 84 | 248 | 5.0 | 8.0 | 0.00 | 0.00 | 0.00 | 48 | 996.2 |
| 20260901133616 | 83 | 248 | 6.0 | 9.0 | 0.00 | 0.00 | 0.00 | 48 | 996.0 |
| 20260901133117 | 82 | 248 | 7.0 | 9.0 | 0.00 | 0.00 | 0.00 | 47 | 996.0 |
| 20260901132637 | 82 | 225 | 8.0 | 10.0 | 0.00 | 0.00 | 0.00 | 47 | 996.0 |
| 20260901132116 | 81 | 248 | 8.0 | 9.0 | 0.00 | 0.00 | 0.00 | 47 | 996.0 |
| 20260901131657 | 81 | 225 | 8.0 | 11.0 | 0.00 | 0.00 | 0.00 | 46 | 996.1 |
| 20260901131119 | 80 | 0 | 8.0 | 10.0 | 0.00 | 0.00 | 0.00 | 47 | 996.1 |
| 20260901130641 | 80 | 248 | 6.0 | 9.0 | 0.00 | 0.00 | 0.00 | 47 | 996.2 |
| 20260901130118 | 80 | 248 | 5.0 | 6.0 | 0.00 | 0.00 | 0.00 | 47 | 996.3 |
| 20260901125617 | 80 | 225 | 5.0 | 6.0 | 0.00 | 0.00 | 0.00 | 47 | 996.2 |
| 20260901125119 | 79 | 225 | 5.0 | 6.0 | 0.00 | 0.00 | 0.00 | 47 | 996.3 |
| 20260901124618 | 79 | 225 | 6.0 | 8.0 | 0.00 | 0.00 | 0.00 | 47 | 996.3 |
| 20260901124119 | 79 | 225 | 5.0 | 6.0 | 0.00 | 0.00 | 0.00 | 47 | 996.4 |
| 20260901123618 | 79 | 225 | 6.0 | 8.0 | 0.00 | 0.00 | 0.00 | 48 | 996.4 |
| 20260901123118 | 79 | 225 | 5.0 | 6.0 | 0.00 | 0.00 | 0.00 | 48 | 996.4 |
| 20260901122618 | 78 | 0 | 6.0 | 8.0 | 0.00 | 0.00 | 0.00 | 48 | 996.4 |
| 20260901122142 | 78 | 0 | 5.0 | 6.0 | 0.00 | 0.00 | 0.00 | 48 | 996.4 |
| 20260901121621 | 78 | 0 | 5.0 | 8.0 | 0.00 | 0.00 | 0.00 | 48 | 996.3 |
| 20260901121201 | 78 | 248 | 4.0 | 5.0 | 0.00 | 0.00 | 0.00 | 48 | 996.4 |
| 20260901120621 | 78 | 248 | 5.0 | 6.0 | 0.00 | 0.00 | 0.00 | 48 | 996.4 |
| 20260901120120 | 78 | 0 | 4.0 | 6.0 | 0.00 | 0.00 | 0.00 | 49 | 996.4 |
| 20260901115621 | 78 | 0 | 4.0 | 5.0 | 0.00 | 0.00 | 0.00 | 49 | 996.3 |
| 20260901115118 | 78 | 0 | 4.0 | 5.0 | 0.00 | 0.00 | 0.00 | 49 | 996.4 |
| 20260901114618 | 78 | 0 | 5.0 | 8.0 | 0.00 | 0.00 | 0.00 | 49 | 996.2 |
| 20260901114120 | 78 | 0 | 5.0 | 6.0 | 0.00 | 0.00 | 0.00 | 49 | 996.2 |
| 20260901113619 | 78 | 0 | 5.0 | 8.0 | 0.00 | 0.00 | 0.00 | 49 | 996.2 |
| 20260901113121 | 77 | 0 | 2.0 | 3.0 | 0.00 | 0.00 | 0.00 | 49 | 996.1 |
| 20260901112619 | 77 | 0 | 1.0 | 2.0 | 0.00 | 0.00 | 0.00 | 49 | 996.1 |
| 20260901112120 | 77 | 0 | 3.0 | 4.0 | 0.00 | 0.00 | 0.00 | 49 | 996.1 |
| 20260901111620 | 77 | 0 | 5.0 | 8.0 | 0.00 | 0.00 | 0.00 | 49 | 996.0 |
| 20260901111120 | 77 | 0 | 4.0 | 6.0 | 0.00 | 0.00 | 0.00 | 49 | 996.0 |
| 20260901110618 | 77 | 0 | 2.0 | 3.0 | 0.00 | 0.00 | 0.00 | 49 | 996.0 |
| 20260901110120 | 77 | 225 | 2.0 | 4.0 | 0.00 | 0.00 | 0.00 | 49 | 995.9 |
| 20260901105618 | 77 | 248 | 3.0 | 4.0 | 0.00 | 0.00 | 0.00 | 49 | 995.9 |
| 20260901105118 | 77 | 0 | 6.0 | 9.0 | 0.00 | 0.00 | 0.00 | 49 | 995.9 |
| 20260901104618 | 77 | 0 | 7.0 | 10.0 | 0.00 | 0.00 | 0.00 | 49 | 995.8 |
| 20260901104118 | 77 | 0 | 6.0 | 9.0 | 0.00 | 0.00 | 0.00 | 49 | 995.9 |
| 20260901103618 | 77 | 0 | 7.0 | 9.0 | 0.00 | 0.00 | 0.00 | 49 | 995.8 |
| 20260901103138 | 77 | 225 | 6.0 | 8.0 | 0.00 | 0.00 | 0.00 | 49 | 995.8 |
| 20260901102618 | 77 | 248 | 6.0 | 8.0 | 0.00 | 0.00 | 0.00 | 49 | 995.8 |
| 20260901102118 | 77 | 225 | 6.0 | 8.0 | 0.00 | 0.00 | 0.00 | 49 | 995.7 |
| 20260901101638 | 77 | 0 | 9.0 | 11.0 | 0.00 | 0.00 | 0.00 | 49 | 995.7 |
| 20260901101119 | 77 | 0 | 9.0 | 11.0 | 0.00 | 0.00 | 0.00 | 49 | 995.7 |
| 20260901100618 | 77 | 0 | 9.0 | 11.0 | 0.00 | 0.00 | 0.00 | 49 | 995.6 |
| 20260901100118 | 77 | 225 | 9.0 | 10.0 | 0.00 | 0.00 | 0.00 | 49 | 995.5 |
| 20260901095618 | 77 | 0 | 9.0 | 11.0 | 0.00 | 0.00 | 0.00 | 50 | 995.5 |
| 20260901095122 | 77 | 0 | 11.0 | 12.0 | 0.00 | 0.00 | 0.00 | 50 | 995.5 |
| 20260901094621 | 77 | 225 | 10.0 | 12.0 | 0.00 | 0.00 | 0.00 | 50 | 995.5 |
| 20260901094121 | 77 | 0 | 10.0 | 12.0 | 0.00 | 0.00 | 0.00 | 50 | 995.5 |
| 20260901093618 | 77 | 0 | 10.0 | 12.0 | 0.00 | 0.00 | 0.00 | 50 | 995.5 |
| 20260901093118 | 77 | 0 | 11.0 | 13.0 | 0.00 | 0.00 | 0.00 | 50 | 995.5 |
| 20260901092638 | 77 | 0 | 10.0 | 12.0 | 0.00 | 0.00 | 0.00 | 50 | 995.4 |
| 20260901092120 | 77 | 0 | 8.0 | 11.0 | 0.00 | 0.00 | 0.00 | 51 | 995.5 |
| 20260901091621 | 77 | 0 | 8.0 | 10.0 | 0.00 | 0.00 | 0.00 | 51 | 995.5 |
| 20260901091120 | 77 | 0 | 9.0 | 11.0 | 0.00 | 0.00 | 0.00 | 50 | 995.4 |
| 20260901090618 | 77 | 0 | 8.0 | 10.0 | 0.00 | 0.00 | 0.00 | 50 | 995.5 |
| 20260901090142 | 77 | 0 | 9.0 | 10.0 | 0.00 | 0.00 | 0.00 | 50 | 995.5 |
| 20260901085618 | 77 | 0 | 10.0 | 11.0 | 0.00 | 0.00 | 0.00 | 50 | 995.4 |
| 20260901085139 | 77 | 0 | 9.0 | 11.0 | 0.00 | 0.00 | 0.00 | 50 | 995.4 |
| 20260901084618 | 77 | 0 | 8.0 | 9.0 | 0.00 | 0.00 | 0.00 | 50 | 995.4 |
| 20260901084119 | 77 | 0 | 8.0 | 11.0 | 0.00 | 0.00 | 0.00 | 50 | 995.4 |
| 20260901083618 | 77 | 0 | 9.0 | 10.0 | 0.00 | 0.00 | 0.00 | 50 | 995.4 |
| 20260901083118 | 77 | 0 | 9.0 | 12.0 | 0.00 | 0.00 | 0.00 | 50 | 995.4 |
| 20260901082618 | 77 | 0 | 9.0 | 11.0 | 0.00 | 0.00 | 0.00 | 50 | 995.4 |
| 20260901082118 | 77 | 0 | 8.0 | 11.0 | 0.00 | 0.00 | 0.00 | 50 | 995.5 |
| 20260901081618 | 77 | 0 | 9.0 | 12.0 | 0.00 | 0.00 | 0.00 | 50 | 995.4 |
| 20260901081137 | 77 | 0 | 8.0 | 11.0 | 0.00 | 0.00 | 0.00 | 50 | 995.4 |
| 20260901080618 | 77 | 0 | 7.0 | 10.0 | 0.00 | 0.00 | 0.00 | 50 | 995.5 |
| 20260901080117 | 77 | 0 | 8.0 | 11.0 | 0.00 | 0.00 | 0.00 | 50 | 995.5 |
| 20260901075617 | 77 | 0 | 7.0 | 9.0 | 0.00 | 0.00 | 0.00 | 50 | 995.5 |
| 20260901075118 | 77 | 0 | 8.0 | 10.0 | 0.00 | 0.00 | 0.00 | 50 | 995.5 |
| 20260901074618 | 77 | 0 | 8.0 | 11.0 | 0.00 | 0.00 | 0.00 | 50 | 995.4 |
| 20260901074138 | 77 | 0 | 9.0 | 11.0 | 0.00 | 0.00 | 0.00 | 50 | 995.4 |
| 20260901073618 | 77 | 0 | 9.0 | 12.0 | 0.00 | 0.00 | 0.00 | 50 | 995.5 |
| 20260901073138 | 77 | 0 | 8.0 | 10.0 | 0.00 | 0.00 | 0.00 | 50 | 995.6 |
| 20260901072618 | 77 | 0 | 9.0 | 12.0 | 0.00 | 0.00 | 0.00 | 50 | 995.6 |
| 20260901072118 | 77 | 0 | 9.0 | 12.0 | 0.00 | 0.00 | 0.00 | 50 | 995.6 |
| 20260901071619 | 77 | 0 | 8.0 | 10.0 | 0.00 | 0.00 | 0.00 | 50 | 995.6 |
| 20260901071117 | 77 | 0 | 7.0 | 10.0 | 0.00 | 0.00 | 0.00 | 50 | 995.6 |
| 20260901070619 | 77 | 0 | 8.0 | 10.0 | 0.00 | 0.00 | 0.00 | 50 | 995.6 |
| 20260901070118 | 77 | 0 | 7.0 | 10.0 | 0.00 | 0.00 | 0.00 | 50 | 995.6 |
| 20260901065619 | 77 | 0 | 7.0 | 9.0 | 0.00 | 0.00 | 0.00 | 50 | 995.7 |
| 20260901065120 | 77 | 0 | 8.0 | 10.0 | 0.00 | 0.00 | 0.00 | 50 | 995.6 |
| 20260901064620 | 77 | 0 | 9.0 | 11.0 | 0.00 | 0.00 | 0.00 | 50 | 995.6 |
| 20260901064120 | 77 | 0 | 9.0 | 12.0 | 0.00 | 0.00 | 0.00 | 50 | 995.5 |
| 20260901063617 | 77 | 0 | 8.0 | 11.0 | 0.00 | 0.00 | 0.00 | 50 | 995.5 |
| 20260901063120 | 77 | 0 | 8.0 | 10.0 | 0.00 | 0.00 | 0.00 | 49 | 995.5 |
| 20260901062620 | 77 | 0 | 7.0 | 9.0 | 0.00 | 0.00 | 0.00 | 49 | 995.5 |
| 20260901062140 | 77 | 0 | 9.0 | 11.0 | 0.00 | 0.00 | 0.00 | 49 | 995.5 |
| 20260901061619 | 77 | 0 | 10.0 | 11.0 | 0.00 | 0.00 | 0.00 | 49 | 995.5 |
| 20260901061141 | 77 | 0 | 9.0 | 11.0 | 0.00 | 0.00 | 0.00 | 49 | 995.6 |
| 20260901060620 | 77 | 0 | 11.0 | 14.0 | 0.00 | 0.00 | 0.00 | 50 | 995.6 |
| 20260901060121 | 77 | 0 | 3.0 | 6.0 | 0.00 | 0.00 | 0.00 | 50 | 995.7 |
| 20260901055640 | 77 | 0 | 9.0 | 10.0 | 0.00 | 0.00 | 0.00 | 50 | 995.8 |
| 20260901055120 | 77 | 0 | 7.0 | 11.0 | 0.00 | 0.00 | 0.00 | 50 | 995.8 |
| 20260901054620 | 77 | 0 | 8.0 | 10.0 | 0.00 | 0.00 | 0.00 | 50 | 995.9 |
| 20260901054121 | 77 | 0 | 9.0 | 11.0 | 0.00 | 0.00 | 0.00 | 50 | 995.8 |
| 20260901053617 | 77 | 0 | 7.0 | 10.0 | 0.00 | 0.00 | 0.00 | 50 | 995.8 |
| 20260901053120 | 77 | 0 | 6.0 | 8.0 | 0.00 | 0.00 | 0.00 | 50 | 995.7 |
| 20260901052619 | 77 | 0 | 8.0 | 10.0 | 0.00 | 0.00 | 0.00 | 50 | 995.7 |
| 20260901052120 | 77 | 0 | 4.0 | 7.0 | 0.00 | 0.00 | 0.00 | 50 | 995.8 |
| 20260901051620 | 77 | 0 | 4.0 | 9.0 | 0.00 | 0.00 | 0.00 | 50 | 995.8 |
| 20260901051119 | 77 | 0 | 7.0 | 10.0 | 0.00 | 0.00 | 0.00 | 50 | 995.9 |
| 20260901050620 | 77 | 0 | 5.0 | 9.0 | 0.00 | 0.00 | 0.00 | 50 | 995.9 |
| 20260901050120 | 77 | 0 | 6.0 | 9.0 | 0.00 | 0.00 | 0.00 | 50 | 995.9 |
| 20260901045638 | 77 | 0 | 7.0 | 9.0 | 0.00 | 0.00 | 0.00 | 50 | 996.0 |
| 20260901045120 | 77 | 0 | 4.0 | 9.0 | 0.00 | 0.00 | 0.00 | 50 | 995.8 |
| 20260901044620 | 77 | 0 | 6.0 | 8.0 | 0.00 | 0.00 | 0.00 | 50 | 995.9 |
| 20260901044118 | 77 | 0 | 4.0 | 6.0 | 0.00 | 0.00 | 0.00 | 50 | 995.8 |
| 20260901043617 | 77 | 0 | 2.0 | 3.0 | 0.00 | 0.00 | 0.00 | 50 | 995.7 |
| 20260901043120 | 77 | 180 | 1.0 | 3.0 | 0.00 | 0.00 | 0.00 | 50 | 995.7 |
| 20260901042617 | 77 | 180 | 2.0 | 3.0 | 0.00 | 0.00 | 0.00 | 50 | 995.8 |
| 20260901042117 | 77 | 0 | 4.0 | 5.0 | 0.00 | 0.00 | 0.00 | 50 | 995.8 |
| 20260901041617 | 77 | 203 | 4.0 | 5.0 | 0.00 | 0.00 | 0.00 | 49 | 995.8 |
| 20260901041117 | 77 | 0 | 2.0 | 4.0 | 0.00 | 0.00 | 0.00 | 50 | 995.8 |
| 20260901040619 | 77 | 0 | 3.0 | 6.0 | 0.00 | 0.00 | 0.00 | 50 | 995.8 |
| 20260901040137 | 77 | 0 | 4.0 | 5.0 | 0.00 | 0.00 | 0.00 | 50 | 995.8 |
| 20260901035618 | 77 | 0 | 2.0 | 4.0 | 0.00 | 0.00 | 0.00 | 50 | 995.7 |
| 20260901035118 | 77 | 180 | 3.0 | 5.0 | 0.00 | 0.00 | 0.00 | 50 | 995.7 |
| 20260901034618 | 77 | 180 | 2.0 | 4.0 | 0.00 | 0.00 | 0.00 | 50 | 995.7 |
| 20260901034118 | 77 | 0 | 4.0 | 5.0 | 0.00 | 0.00 | 0.00 | 50 | 995.5 |
| 20260901033618 | 77 | 0 | 2.0 | 5.0 | 0.00 | 0.00 | 0.00 | 50 | 995.6 |
| 20260901033117 | 77 | 0 | 2.0 | 3.0 | 0.00 | 0.00 | 0.00 | 50 | 995.6 |
| 20260901032618 | 77 | 0 | 3.0 | 5.0 | 0.00 | 0.00 | 0.00 | 51 | 995.7 |
| 20260901032117 | 77 | 0 | 3.0 | 5.0 | 0.00 | 0.00 | 0.00 | 51 | 995.7 |
| 20260901031617 | 76 | 158 | 2.0 | 5.0 | 0.00 | 0.00 | 0.00 | 51 | 995.6 |
| 20260901031118 | 76 | 180 | 2.0 | 4.0 | 0.00 | 0.00 | 0.00 | 51 | 995.6 |
| 20260901030638 | 76 | 158 | 1.0 | 4.0 | 0.00 | 0.00 | 0.00 | 52 | 995.7 |
| 20260901030118 | 76 | 180 | 1.0 | 1.0 | 0.00 | 0.00 | 0.00 | 52 | 995.9 |
| 20260901025618 | 76 | 0.0 | 1.0 | 0.00 | 0.00 | 0.00 | 53 | 996.0 | |
| 20260901025118 | 76 | 0.0 | 1.0 | 0.00 | 0.00 | 0.00 | 53 | 996.1 | |
| 20260901024617 | 76 | 0.0 | 0.0 | 0.00 | 0.00 | 0.00 | 53 | 996.2 | |
| 20260901024118 | 76 | 0.0 | 2.0 | 0.00 | 0.00 | 0.00 | 54 | 996.1 | |
| 20260901023617 | 77 | 180 | 2.0 | 4.0 | 0.00 | 0.00 | 0.00 | 55 | 996.0 |
| 20260901023118 | 77 | 0.0 | 1.0 | 0.00 | 0.00 | 0.00 | 55 | 996.1 | |
| 20260901022618 | 77 | 0.0 | 1.0 | 0.00 | 0.00 | 0.00 | 55 | 995.8 | |
| 20260901022137 | 77 | 0.0 | 1.0 | 0.00 | 0.00 | 0.00 | 56 | 995.8 | |
| 20260901021638 | 77 | 0.0 | 1.0 | 0.00 | 0.00 | 0.00 | 56 | 995.8 | |
| 20260901021258 | 77 | 0.0 | 1.0 | 0.00 | 0.00 | 0.00 | 56 | 995.9 | |
| 20260901020637 | 77 | 203 | 1.0 | 2.0 | 0.00 | 0.00 | 0.00 | 56 | 995.9 |
| 20260901020118 | 77 | 0.0 | 1.0 | 0.00 | 0.00 | 0.00 | 56 | 995.6 | |
| 20260901015617 | 77 | 203 | 1.0 | 4.0 | 0.00 | 0.00 | 0.00 | 56 | 995.5 |
| 20260901015118 | 77 | 180 | 3.0 | 5.0 | 0.00 | 0.00 | 0.00 | 56 | 995.3 |
| 20260901014638 | 77 | 180 | 1.0 | 3.0 | 0.00 | 0.00 | 0.00 | 56 | 995.4 |
| 20260901014117 | 78 | 180 | 3.0 | 6.0 | 0.00 | 0.00 | 0.00 | 56 | 995.5 |
| 20260901013617 | 78 | 180 | 1.0 | 3.0 | 0.00 | 0.00 | 0.00 | 56 | 995.5 |
| 20260901013117 | 78 | 0.0 | 1.0 | 0.00 | 0.00 | 0.00 | 56 | 995.5 | |
| 20260901012617 | 78 | 0 | 1.0 | 2.0 | 0.00 | 0.00 | 0.00 | 56 | 995.5 |
| 20260901012138 | 78 | 203 | 1.0 | 3.0 | 0.00 | 0.00 | 0.00 | 55 | 995.6 |
| 20260901011639 | 78 | 0 | 3.0 | 4.0 | 0.00 | 0.00 | 0.00 | 55 | 995.6 |
| 20260901011117 | 78 | 0 | 4.0 | 5.0 | 0.00 | 0.00 | 0.00 | 55 | 995.6 |
| 20260901010618 | 78 | 248 | 4.0 | 5.0 | 0.00 | 0.00 | 0.00 | 55 | 995.7 |
| 20260901010137 | 78 | 0 | 8.0 | 10.0 | 0.00 | 0.00 | 0.00 | 55 | 995.6 |